Location: *
(60.1759°S, 155.0663°W)
Time: 17:19:03
(UTC+00:00)

Meteor 1-13 Rocket - Pass Details

Date: 17 September 2019
Orbit: 831 x 912 km, 81.3° (Epoch: 20 October)

Event Time Altitude Azimuth Distance (km) Brightness Sun altitude
Rises 15:37:38 0° 198° (SSW) 3,470 7.3 -6.5°
Reaches altitude 10° 15:40:07 10° 201° (SSW) 2,518 6.5 -6.2°
Maximum altitude 15:45:42 59° 278° (W) 986 4.3 -5.5°
Drops below altitude 10° 15:51:10 10° 356° (N) 2,461 6.6 -4.8°
Sets 15:53:34 0° 359° (N) 3,385 7.3 -4.5°
